Weather in Akkystau

Kazakhstan     47°13′20″N   51°00′21″E
temp.,
°C
wind,
m/s
gust,
m/s
humid.,
%
clouds,
%
prec.,
mm/h
press.,
hPa
HPBL,
m
15 may, sat
sat1523:00+26ese510142 0.0 1020139
02:00+24se511210 0.0 1019159
05:00+22se58255 0.0 1019104
08:00+24ese47215 0.0 1020168
11:00+28se88283 0.0 1020792
14:00+30sse911190 0.0 10201663
17:00+32sse810150 0.0 10192195
20:00+31se68150 0.0 1018472
16 may, sun
sun1623:00+27ese510200 0.0 1018162
02:00+25se512260 0.0 1018191
05:00+22se511480 0.0 1018199
08:00+24se510440 0.0 1019289
11:00+29se911190 0.0 1019904
14:00+30se1012120 0.0 10191595
17:00+31se1011110 0.0 10172144
20:00+30se710120 0.0 1016686
17 may, mon
mon1723:00+26ese510160 0.0 1016146
02:00+24ese716250 0.0 1016361
05:00+22se614330 0.0 1016275
08:00+23ese712290 0.0 1017398
11:00+29se910160 0.0 1017938
14:00+32sse911120 0.0 10172201
17:00+33se911100 0.0 10152662
20:00+32se69113 0.0 1014423
18 may, tue
tue1823:00+27ese5111535 0.0 1014166
02:00+25ese6162058 0.0 1014302
05:00+23se513325 0.0 1014235
08:00+25ese511285 0.0 1014266
11:00+31se1013145 0.0 10142109
14:00+33se9981 0.0 10131767
17:00+33sse771041 0.0 10122408
20:00+32ese5780 0.0 1011297
19 may, wed
wed1923:00+28e46115 0.0 101166
02:00+26e57135 0.0 101089
05:00+24e5121742 0.0 1010165
08:00+26ese51028100 0.0 1011255
11:00+30se5724100 0.0 1011550
14:00+33sse4517100 0.0 1011897
17:00+33s7615100 0.0 10111048
20:00+30ssw332394 0.0 1011317